Showing default

GONETS M 13 (M23), 40554

Orbit data source: Space-Track

GONETS M 13 (M23), 40554 is a payload satellite owned by Gonets (CIS) in LEO that was launched on Tue, 31 Mar 2015 UTC via an ROKOT launch vehicle from the Plesetsk Missile And Space Complex (PKMTR). Payloads include a variety of satellites, spacecraft, and rockets equipped with specific instruments for various scientific and technological missions. These include communications satellites like Starlink; space stations such as the ISS; scientific satellites like the Hubble; Earth observation satellites from companies like Planet Labs, Umbra, and HawkEye 360; GPS; miniature CubeSats for education and research; and military/defense satellites.

Loading next visibility...
GONETS M 13 (M23) details
Identifier
40554, 2015-020C
Orbit
LEO
Last TLE update1 day ago
Origin
Flag of CISGonets (CIS)
ManufacturerResehetnev ISS
MissionOperational Civil Communications
Bus & MotorSTRELA-3M, Unknown motor
Mass225 kg wet, 225 kg dry
Launch date (UTC)
2015-03-31 (10 years ago)
Launch vehicle
ROKOT
Launch site
Plesetsk Missile And Space Complex (PKMTR)
Object type
Payload
Rocket body
Debris
Shape & HBRCyl + 1 Ant, 7 m
Radar Cross Section1.798 m², Large (>1 m²)

Expand to show TLE details & history

TLE from 1 day ago
0 GONETS M 13 (M23)
1 40554U 15020C   24360.50656640  .00000055  00000-0  32539-3 0  9998
2 40554  82.4860   6.3703 0014541  70.0170 290.2474 12.42884097441784
Epoch: 2024-12-25T12:09Z
Definitive object data (Epoch: 2024-12-25T12:09:27.336Z)
Latitude-0.00006°
Longitude89.50706°
Altitude1,493.152 km
Speed7.119 km/s
True Right ascension00h 25m 28s
True Declination0° 00' 00"
Sunlit
Object was in daylight at TLE epoch
Visualization TLE readout
Latitude71.51453°
Longitude-114.22661°
Altitude1,497.835 km
Speed7.126 km/s
Apparent Right ascension23h 42m 41s
Apparent Declination54° 17' 19"
Sunlit
Object is in daylight
Visualization observer readout
Local Sidereal Time11:16:12
Azimuth356.131° N
Elevation4.376°
Doppler factor1
Orbital elements
Apogee altitude1,503.196 km
Perigee altitude1,480.309 km
Semi-major axis7,869.89 km
Eccentricity0.0014541
Inclination82.486°
RAAN6.3703°
Arg. of periapsis70.017°
True anomaly290.09097°
Mean anomaly290.2474°
Eccentric anomaly290.1692°
Mean motion3.10878 °/min
BSTAR0.00032539
Orbital period115.8 mins
Loading maneuver chart data...
Loading historical data...
Loading historical data...
Loading historical data...
Loading historical data...
Loading historical data...
Loading historical data...
Loading historical data...

GONETS M 13 (M23) Visibility forecast

Observer location: undefined°, undefined

Span
Click to sort rows by Start time (UTC) header in descending order
Start Az.
Max El. time (UTC)
Max El. Az.
Max El.
End time (UTC)
End Az.
16 mins2024-12-26 11:56:47.123Z359.316° N2024-12-26 12:04:47.123Z72.592° E41.129°2024-12-26 12:12:47.123Z156.714° SSE
12 mins2024-12-26 13:55:47.123Z323.516° NNW2024-12-26 14:00:47.123Z281.428° WNW25.018°2024-12-26 14:07:47.123Z225.103° WSW
15 mins2024-12-27 00:57:47.123Z173.367° S2024-12-27 01:04:47.123Z88.517° E43.502°2024-12-27 01:12:47.123Z12.346° NNE
12 mins2024-12-27 02:56:47.123Z248.458° W2024-12-27 03:02:47.123Z298.292° NW22.167°2024-12-27 03:08:47.123Z343.711° N
14 mins2024-12-27 11:08:47.123Z13.548° NNE2024-12-27 11:14:47.123Z65.01° ENE29.088°2024-12-27 11:22:47.123Z132.856° SE
|